Weather History for Kalispell, MT

Change the Weather History Date:

Monday, April 22, 2013

  Actual Average Record
Temperature  
Mean Temperature 33 °F 45 °F  
Max Temperature 44 °F 58 °F 80 °F (1969)
Min Temperature 21 °F 32 °F 16 °F (1968)
Degree Days  
Heating Degree Days 32 20  
Month to date heating degree days 564 490  
Since 1 July heating degree days 6744 7261  
Cooling Degree Days 0 0  
Month to date cooling degree days 0 0  
Year to date cooling degree days 0 0  
Moisture  
Dew Point 16 °F    
Average Humidity 56    
Maximum Humidity 81    
Minimum Humidity 30    
Precipitation  
Precipitation 0.00 in 0.04 in 0.64 in (1956)
Month to date precipitation 1.36 0.89  
Year to date precipitation 3.31 4.28  
Snow  
Snow 0.00 in - - ()
Month to date snowfall 0.3  
Year to date snowfall 8.6  
Since 1 July snowfall 17.4  
Snow Depth 0.00 in    
Sea Level Pressure  
Sea Level Pressure 30.47 in    
Wind  
Wind Speed 9 mph (East)    
Max Wind Speed 26 mph    
Max Gust Speed 29 mph    
Visibility 10 miles    
Events      
T = Trace of Precipitation, MM = Missing Value Source: NWS Daily Summary

Daily Weather History Graph

Daily Weather History Graph

Search for Another Location

Airport:

Trip Planner

Search our weather history database for the weather conditions in past years. The results will help you decide how hot, cold, wet, or windy it might be!

Date:

Astronomy

Apr. 22, 2013 Rise Set
Actual Time 6:33 AM MDT 8:38 PM MDT
Civil Twilight 5:59 AM MDT 9:12 PM MDT
Nautical Twilight 5:17 AM MDT 9:54 PM MDT
Astronomical Twilight 4:31 AM MDT 10:41 PM MDT
Moon 5:18 PM MDT (4/22) 4:45 AM MDT (4/22)
Length of Visible Light 15h 12m
Length of Day
14h 05m
Waxing Gibbous, 88% of the Moon is Illuminated
Apr 22
Waxing Gibbous
Apr 25
Full
May 2
Last Quarter
May 9
New
May 17
First Quarter

Hourly Weather History & Observations

Time (MDT) Temp. Windchill Dew Point Humidity Pressure Visibility Wind Dir Wind Speed Gust Speed Precip Events Conditions
12:55 AM 25.0 °F 16.3 °F 12.9 °F 60% 30.40 in 10.0 mi NNE 8.1 mph - N/A   Clear
1:55 AM 24.1 °F 13.7 °F 12.9 °F 62% 30.43 in 10.0 mi NNE 10.4 mph - N/A   Clear
2:55 AM 23.0 °F 11.7 °F 12.9 °F 65% 30.44 in 10.0 mi NNE 11.5 mph - N/A   Clear
3:55 AM 23.0 °F 11.7 °F 14.0 °F 68% 30.45 in 10.0 mi North 11.5 mph - N/A   Clear
4:55 AM 23.0 °F 11.7 °F 12.9 °F 65% 30.46 in 10.0 mi North 11.5 mph - N/A   Clear
5:55 AM 21.9 °F 10.4 °F 12.0 °F 66% 30.48 in 10.0 mi NNE 11.5 mph - N/A   Clear
6:55 AM 21.9 °F 11.7 °F 12.0 °F 66% 30.50 in 10.0 mi North 9.2 mph - N/A   Clear
7:55 AM 25.0 °F 17.1 °F 12.9 °F 60% 30.53 in 10.0 mi North 6.9 mph - N/A   Clear
8:55 AM 28.9 °F 20.4 °F 15.1 °F 56% 30.54 in 10.0 mi NNE 9.2 mph - N/A   Clear
9:55 AM 32.0 °F 27.5 °F 15.1 °F 50% 30.54 in 10.0 mi NE 4.6 mph - N/A   Clear
10:55 AM 34.0 °F 29.8 °F 10.9 °F 38% 30.55 in 10.0 mi SE 4.6 mph - N/A   Clear
11:55 AM 35.1 °F 32.2 °F 10.0 °F 35% 30.54 in 10.0 mi Variable 3.5 mph - N/A   Clear
12:55 PM 39.0 °F 35.7 °F 12.0 °F 33% 30.52 in 10.0 mi Variable 4.6 mph - N/A   Clear
1:55 PM 41.0 °F 36.4 °F 12.9 °F 32% 30.50 in 10.0 mi WSW 6.9 mph - N/A   Clear
2:55 PM 41.0 °F 38.0 °F 12.0 °F 31% 30.49 in 10.0 mi SW 4.6 mph - N/A   Clear
3:55 PM 42.1 °F 37.1 °F 14.0 °F 32% 30.47 in 10.0 mi SSE 8.1 mph 17.3 mph N/A   Clear
4:55 PM 43.0 °F 36.4 °F 19.0 °F 38% 30.45 in 10.0 mi SSE 12.7 mph 18.4 mph N/A   Clear
5:55 PM 41.0 °F 33.5 °F 21.9 °F 47% 30.45 in 10.0 mi SSE 13.8 mph - N/A   Clear
6:55 PM 39.9 °F 31.4 °F 21.9 °F 49% 30.44 in 10.0 mi South 16.1 mph - N/A   Clear
7:55 PM 37.0 °F 28.5 °F 21.0 °F 52% 30.44 in 10.0 mi SSE 13.8 mph - N/A   Clear
8:55 PM 35.1 °F 25.5 °F 21.0 °F 57% 30.43 in 10.0 mi SSE 15.0 mph - N/A   Clear
9:55 PM 34.0 °F - 21.0 °F 59% 30.43 in 10.0 mi North - - N/A   Clear
10:55 PM 32.0 °F 26.4 °F 21.0 °F 64% 30.43 in 10.0 mi South 5.8 mph - N/A   Clear
11:55 PM 27.0 °F 21.6 °F 21.0 °F 78% 30.43 in 10.0 mi SSW 4.6 mph - N/A   Clear